DELTA 1 DEB, 14905

Orbit data source: Space-Track

DELTA 1 DEB, 14905 is space debris in SSO originally from a launch on Thu, 29 Jul 1976 UTC launched from the Air Force Western Test Range (AFWTR). Debris objects in space refer to the collection of defunct objects orbiting the Earth. Examples of debris include non-operational satellites, rocket bodies, and fragments generated from explosions, collisions, or faulty payload assembly.

Loading next visibility...
Identifier
14905, 1976-077ET
Orbit
SSO
Country
Flag of USUS
Related business
Manufacturer
Unknown
Mission
Spacecraft
Bus & Motor
Unknown
Mass
Unknown
Launch date (UTC)
1976-07-29 (50 years ago)
Launch vehicle
Unknown
Launch site
Air Force Western Test Range (AFWTR)
Object type
Payload
Rocket body
Debris
Shape & HBR
Unknown shape, 0.1 m
Radar Cross Section
Medium (>0.1 m² and <1 m²)

Expand to show TLE details & history
Last TLE update: 3 days ago

TLE from 3 days ago
0 DELTA 1 DEB
1 14905U 76077ET  26171.13354405 -.00000038  00000-0  36726-4 0  9998
2 14905 102.2567 226.9308 0183635   5.0240  18.9874 12.07381254918717
Epoch: 2026-06-20T03:12Z
TLE epoch observation values (Epoch: 2026-06-20T03:12:18.205Z)
Latitude
24.13695°
Longitude
-95.05648°
Altitude
1,511.437 km
Speed
7.173 km/s
True Right ascension
14h 45m 29s
True Declination
24° 01' 16"
Sunlit
Object was in daylight at epoch
Visualization orbit readout
Latitude
Unknown
Longitude
Unknown
Altitude
Unknown
Speed
Unknown
Apparent Right ascension
Unknown
Apparent Declination
Unknown
Sunlit
N/A
Visualization observer readout
Local Sidereal Time
02:17:40
Azimuth
Unknown
Elevation
Unknown
Doppler factor
Unknown
Orbital elements
Apogee altitude
1,792.957 km
Perigee altitude
1,498.269 km
Semi-major axis
8,023.75 km
Eccentricity
0.01836
Inclination
102.2567°
RAAN
226.9308°
Arg. of periapsis
5.024°
True anomaly
19.68722°
Mean anomaly
18.9874°
Eccentric anomaly
19.33577°
Mean motion
3.01979 °/min
Orbital period
119.21 mins
BSTAR
0.000036726
Loading maneuver chart data...
Computing Atmospheric mass density...
Loading historical data...
Loading historical data...
Loading historical data...
Loading historical data...
Loading historical data...
Loading historical data...
Loading historical data...

Documentation

Showing up to 5 results
|